When you browse on this site, cookies collect data to enhance your experience and personalize the content and advertising you see.
Visit our Privacy Policy to learn more. By continuing to use the site, you agree to this use of cookies and data.
  • In Austria
  • List of Countries
  • For 7 days
  • Water Temperature
  • Satellite Maps
  • Weather Map
  • News
  • Weather Widgets
  • user-avatar
    Login

    Hourly Weather Petropavlovskoe

    Today, 18 February, Monday

    Time Temperature Precipitation Wind Pressure Humidity
    00:00 -5°C° 0.1 mm 6 mps 740 mmHg 78%
    01:00 -6°C° 0.1 mm 6 mps 741 mmHg 78%
    02:00 -6°C° 0.1 mm 6 mps 742 mmHg 78%
    03:00 -8°C° 0 mm 6 mps 743 mmHg 79%
    04:00 -8°C° 0 mm 6 mps 744 mmHg 79%
    05:00 -9°C° 0 mm 6 mps 745 mmHg 80%
    06:00 -8°C° 0 mm 5 mps 746 mmHg 81%
    07:00 -10°C° 0 mm 5 mps 746 mmHg 82%
    08:00 -10°C° 0 mm 5 mps 747 mmHg 83%
    09:00 -10°C° 0 mm 5 mps 748 mmHg 82%
    10:00 -10°C° 0 mm 5 mps 749 mmHg 81%
    11:00 -9°C° 0 mm 4 mps 749 mmHg 80%
    12:00 -9°C° 0 mm 4 mps 750 mmHg 80%
    13:00 -8°C° 0 mm 4 mps 750 mmHg 79%
    14:00 -8°C° 0 mm 4 mps 750 mmHg 78%
    15:00 -8°C° 0 mm 3 mps 751 mmHg 82%
    16:00 -8°C° 0 mm 2 mps 751 mmHg 86%
    17:00 -9°C° 0 mm 2 mps 751 mmHg 89%
    18:00 -9°C° 0 mm 1 mps 751 mmHg 90%
    19:00 -9°C° 0 mm 1 mps 752 mmHg 91%
    20:00 -10°C° 0 mm 1 mps 752 mmHg 92%
    21:00 -10°C° 0 mm 1 mps 752 mmHg 91%
    22:00 -9°C° 0 mm 1 mps 751 mmHg 91%
    23:00 -10°C° 0 mm 2 mps 751 mmHg 90%

    Tomorrow, 19 February, Tuesday

    Time Temperature Precipitation Wind Pressure Humidity
    00:00 -10°C° 0 mm 2 mps 751 mmHg 88%
    01:00 -12°C° 0 mm 3 mps 750 mmHg 87%
    02:00 -10°C° 0 mm 3 mps 750 mmHg 86%
    03:00 -11°C° 0 mm 4 mps 749 mmHg 83%
    04:00 -10°C° 0 mm 4 mps 748 mmHg 81%
    05:00 -10°C° 0 mm 5 mps 747 mmHg 79%
    06:00 -10°C° 0 mm 5 mps 747 mmHg 78%
    07:00 -10°C° 0 mm 5 mps 746 mmHg 78%
    08:00 -10°C° 0 mm 5 mps 746 mmHg 77%
    09:00 -7°C° 0 mm 5 mps 745 mmHg 77%
    10:00 -5°C° 0 mm 5 mps 745 mmHg 77%
    11:00 -4°C° 0 mm 5 mps 744 mmHg 77%
    12:00 -2°C° 0 mm 4 mps 744 mmHg 79%
    13:00 -2°C° 0 mm 4 mps 744 mmHg 82%
    14:00 -1°C° 0 mm 4 mps 743 mmHg 84%
    15:00 -2°C° 0 mm 4 mps 743 mmHg 85%
    16:00 -1°C° 0 mm 3 mps 742 mmHg 86%
    17:00 -2°C° 0 mm 3 mps 742 mmHg 87%
    18:00 -2°C° 0 mm 3 mps 741 mmHg 87%
    19:00 -4°C° 0 mm 4 mps 741 mmHg 86%
    20:00 -4°C° 0 mm 4 mps 740 mmHg 85%
    21:00 -4°C° 0 mm 4 mps 740 mmHg 86%
    22:00 -4°C° 0 mm 4 mps 739 mmHg 87%
    23:00 -4°C° 0 mm 4 mps 739 mmHg 88%

    Day after tomorrow, 20 February, Wednesday

    Time Temperature Precipitation Wind Pressure Humidity
    00:00 -4°C° 0 mm 4 mps 738 mmHg 88%
    01:00 -3°C° 0 mm 4 mps 737 mmHg 89%
    02:00 -3°C° 0 mm 4 mps 737 mmHg 89%
    03:00 -2°C° 0.1 mm 4 mps 736 mmHg 89%
    04:00 -2°C° 0.1 mm 4 mps 735 mmHg 89%
    05:00 -2°C° 0.1 mm 4 mps 735 mmHg 89%
    06:00 -1°C° 0.2 mm 5 mps 734 mmHg 89%
    07:00 -1°C° 0.2 mm 5 mps 734 mmHg 89%
    08:00 -1°C° 0.2 mm 5 mps 733 mmHg 90%
    09:00 0°C° 0.1 mm 5 mps 733 mmHg 90%
    10:00 0°C° 0.1 mm 5 mps 733 mmHg 90%
    11:00 0°C° 0.1 mm 5 mps 733 mmHg 91%
    12:00 0°C° 0 mm 5 mps 733 mmHg 90%
    13:00 0°C° 0 mm 4 mps 733 mmHg 90%
    14:00 0°C° 0 mm 4 mps 733 mmHg 89%
    15:00 0°C° 0 mm 4 mps 733 mmHg 89%
    16:00 0°C° 0 mm 4 mps 732 mmHg 88%
    17:00 0°C° 0 mm 4 mps 732 mmHg 87%
    18:00 0°C° 0.2 mm 4 mps 732 mmHg 87%
    19:00 0°C° 0.2 mm 5 mps 732 mmHg 88%
    20:00 -1°C° 0.2 mm 5 mps 732 mmHg 88%
    21:00 -1°C° 0.2 mm 4 mps 732 mmHg 87%
    22:00 -2°C° 0.2 mm 4 mps 732 mmHg 86%
    23:00 -2°C° 0.2 mm 3 mps 732 mmHg 85%

    21 February, Thursday

    Time Temperature Precipitation Wind Pressure Humidity
    00:00 -4°C° 0 mm 3 mps 732 mmHg 87%
    01:00 -5°C° 0 mm 3 mps 732 mmHg 89%
    02:00 -6°C° 0 mm 3 mps 732 mmHg 90%
    03:00 -6°C° 0.1 mm 3 mps 732 mmHg 91%
    04:00 -5°C° 0.1 mm 2 mps 732 mmHg 92%
    05:00 -5°C° 0.1 mm 2 mps 732 mmHg 93%
    06:00 -5°C° 0.1 mm 2 mps 732 mmHg 93%
    07:00 -5°C° 0.1 mm 2 mps 732 mmHg 92%
    08:00 -5°C° 0.1 mm 2 mps 733 mmHg 92%
    09:00 -4°C° 0.1 mm 2 mps 733 mmHg 90%
    10:00 -3°C° 0.1 mm 2 mps 734 mmHg 88%
    11:00 -3°C° 0.1 mm 2 mps 734 mmHg 86%
    12:00 -4°C° 0.3 mm 4 mps 735 mmHg 86%
    13:00 -6°C° 0.3 mm 5 mps 736 mmHg 86%
    14:00 -8°C° 0.3 mm 6 mps 737 mmHg 86%
    15:00 -8°C° 0.2 mm 6 mps 738 mmHg 85%
    16:00 -9°C° 0.2 mm 6 mps 739 mmHg 84%
    17:00 -9°C° 0.2 mm 6 mps 740 mmHg 83%
    18:00 -10°C° 0.1 mm 6 mps 741 mmHg 83%
    19:00 -10°C° 0.1 mm 6 mps 742 mmHg 82%
    20:00 -11°C° 0.1 mm 6 mps 743 mmHg 82%
    21:00 -11°C° 0.1 mm 6 mps 744 mmHg 81%
    22:00 -12°C° 0.1 mm 6 mps 745 mmHg 81%
    23:00 -12°C° 0.1 mm 6 mps 745 mmHg 81%

    22 February, Friday

    Time Temperature Precipitation Wind Pressure Humidity
    00:00 -14°C° 0.1 mm 6 mps 746 mmHg 80%
    01:00 -15°C° 0.1 mm 6 mps 747 mmHg 80%
    02:00 -15°C° 0.1 mm 6 mps 748 mmHg 79%
    03:00 -16°C° 0 mm 6 mps 748 mmHg 77%
    04:00 -16°C° 0 mm 6 mps 749 mmHg 75%
    05:00 -17°C° 0 mm 6 mps 750 mmHg 73%
    06:00 -16°C° 0 mm 6 mps 751 mmHg 72%
    07:00 -16°C° 0 mm 6 mps 752 mmHg 71%
    08:00 -16°C° 0 mm 6 mps 753 mmHg 70%
    09:00 -14°C° 0 mm 6 mps 754 mmHg 70%
    10:00 -12°C° 0 mm 5 mps 754 mmHg 70%
    11:00 -11°C° 0 mm 5 mps 755 mmHg 70%
    12:00 -11°C° 0 mm 5 mps 755 mmHg 69%
    13:00 -10°C° 0 mm 5 mps 756 mmHg 68%
    14:00 -10°C° 0 mm 5 mps 756 mmHg 68%
    15:00 -9°C° 0 mm 4 mps 756 mmHg 71%
    16:00 -10°C° 0 mm 4 mps 757 mmHg 74%
    17:00 -10°C° 0 mm 4 mps 757 mmHg 77%
    18:00 -10°C° 0 mm 4 mps 757 mmHg 80%
    19:00 -10°C° 0 mm 4 mps 758 mmHg 83%
    20:00 -10°C° 0 mm 4 mps 758 mmHg 85%
    21:00 -10°C° 0 mm 3 mps 758 mmHg 87%
    22:00 -10°C° 0 mm 3 mps 759 mmHg 89%
    23:00 -9°C° 0 mm 2 mps 759 mmHg 90%

    23 February, Saturday

    Time Temperature Precipitation Wind Pressure Humidity
    00:00 -10°C° 0 mm 2 mps 759 mmHg 92%
    01:00 -10°C° 0 mm 2 mps 758 mmHg 93%
    02:00 -10°C° 0 mm 1 mps 758 mmHg 95%
    03:00 -12°C° 0 mm 2 mps 758 mmHg 94%
    04:00 -12°C° 0 mm 2 mps 757 mmHg 94%
    05:00 -12°C° 0 mm 2 mps 757 mmHg 94%
    06:00 -12°C° 0 mm 2 mps 757 mmHg 92%
    07:00 -10°C° 0 mm 2 mps 756 mmHg 91%
    08:00 -10°C° 0 mm 2 mps 755 mmHg 89%
    09:00 -9°C° 0.1 mm 2 mps 755 mmHg 88%
    10:00 -9°C° 0.1 mm 3 mps 754 mmHg 87%
    11:00 -9°C° 0.1 mm 3 mps 754 mmHg 87%
    12:00 -8°C° 0.2 mm 3 mps 753 mmHg 88%
    13:00 -8°C° 0.2 mm 3 mps 752 mmHg 89%
    14:00 -7°C° 0.2 mm 3 mps 752 mmHg 89%
    15:00 -7°C° 0.1 mm 3 mps 752 mmHg 90%
    16:00 -7°C° 0.1 mm 3 mps 751 mmHg 91%
    17:00 -6°C° 0.1 mm 2 mps 751 mmHg 92%
    18:00 -6°C° 0 mm 2 mps 751 mmHg 93%
    19:00 -6°C° 0 mm 2 mps 751 mmHg 94%
    20:00 -6°C° 0 mm 2 mps 751 mmHg 95%
    21:00 -5°C° 0 mm 2 mps 751 mmHg 96%
    22:00 -5°C° 0 mm 2 mps 751 mmHg 96%
    23:00 -2°C° 0 mm 1 mps 751 mmHg 97%
    Show more